Regional Weather Roundup
Issued by NWS Goodland, KS

Home | Current Version | Previous Version | Graphics & Text | Print | Product List | Glossary On
Versions: 1 2 3 4 5 6 7 8 9 10 11 12 13 14 15 16 17 18 19 20 21 22 23 24 25 26 27 28 29 30 31 32 33 34 35 36 37 38 39 40 41 42 43 44 45 46 47 48 49 50
000
ASUS43 KGLD 041108
RWRGLD

GOODLAND FORECAST AREA HOURLY WEATHER ROUNDUP
NATIONAL WEATHER SERVICE GOODLAND KS
400 AM MST WED MAR 04 2015

...OFFICIAL OBSERVATIONS...

CITY           SKY/WX    TMP DP  RH WIND       PRES   REMARKS
GOODLAND KS    LGT SNOW  16  13  88 N10       30.11R FOG     WCI   4
HILL CITY KS   LGT SNOW  18  13  80 NE10      30.19R WCI   6
IMPERIAL NEB     N/A     15   9  76 NW5       30.14R
MCCOOK NEB     LGT SNOW  18  13  80 N5        30.18R
AKRON CO       LGT SNOW  12  10  92 N8        30.06R FOG
BURLINGTON CO  LGT SNOW  15  11  83 NE9       30.06R FOG
LIMON CO       LGT SNOW  12   9  87 NE15      29.99R FOG     WCI  -4
$$

...UNOFFICIAL OBSERVATIONS...

CITY           SKY/WX    TMP DP  RH WIND       PRES   REMARKS
GOVE KS          N/A     18  32 100 MISG        N/A
LENORA KS        N/A     16  32 100 S7          N/A
NORTON KS      MOCLDY    16  10  79 NW6       30.18R
SHARON SPRINGS   N/A     18  15  86 NE7         N/A
KIT CARSON CO    N/A     15  11  85 MISG        N/A
YUMA CO          N/A     14  10  85 N5          N/A
$$



USA.gov is the U.S. government's official web portal to all federal, state and local government web resources and services.